Showing default

JACKAL-02, 59134

Orbit data source: Space-Track

JACKAL-02, 59134 is a payload satellite owned by True Anomaly (US) in SSO that was launched on Mon, 04 Mar 2024 UTC via an FALCON 9 launch vehicle from the Air Force Western Test Range (AFWTR). Payload-class satellites include a variety of spacecraft equipped with specific instruments for various scientific and technological missions. These include communications satellites like Starlink; space stations such as the ISS; scientific satellites like the Hubble; Earth observation satellites from companies like Planet Labs, Umbra, and HawkEye 360; GPS; miniature CubeSats for education and research; and military/defense satellites.

Loading next visibility...
Identifier
59134, 2024-043AN
Orbit
SSO
Last TLE update
21 hours ago
Origin
Manufacturer
True Anomaly
Mission
Operational Commercial Weather
Bus & Motor
JACKAL, Unknown motor
Mass
275 kg wet, 275 kg dry
Launch date (UTC)
2024-03-04 (1 year ago)
Launch vehicle
FALCON 9
Launch site
Air Force Western Test Range (AFWTR)
Object type
Payload
Rocket body
Debris
Shape & HBR
Box + 2 Pan, 1 m
Radar Cross Section
0.126 m², Medium (>0.1 m² and < 1m²)

Expand to show TLE details & history

TLE from 21 hours ago
0 JACKAL-02
1 59134U 24043AN  25181.86650963  .00008279  00000-0  26138-3 0  9994
2 59134  97.5150 312.8123 0010080  36.1417 324.0504 15.33059045 73577
Epoch: 2025-06-30T20:47Z
TLE epoch observation values (Epoch: 2025-06-30T20:47:46.432Z)
Latitude
-0.00002°
Longitude
81.69867°
Altitude
464.212 km
Speed
7.637 km/s
True Right ascension
20h 51m 14s
True Declination
0° 00' 00"
Sunlit
Object was in full shadow at epoch
Visualization orbit readout
Latitude
-28.40703°
Longitude
-101.46969°
Altitude
484.265 km
Speed
7.618 km/s
Apparent Right ascension
12h 12m 48s
Apparent Declination
-60° 05' 46"
Sunlit
Object is in daylight
Visualization observer readout
Local Sidereal Time
05:43:42
Azimuth
141.618° SSE
Elevation
-37.205°
Doppler factor
1
Orbital elements
Apogee altitude
470.541 km
Perigee altitude
456.748 km
Semi-major axis
6,841.782 km
Eccentricity
0.00101
Inclination
97.515°
RAAN
312.8123°
Arg. of periapsis
36.1417°
True anomaly
Unknown
Mean anomaly
324.0504°
Eccentric anomaly
Unknown
Mean motion
3.83521 °/min
Orbital period
93.87 mins
BSTAR
0.00026138
Loading maneuver chart data...
Loading SW <> Apogee altitude chart data...
Loading historical data...
Loading historical data...
Loading historical data...
Loading historical data...
Loading historical data...
Loading historical data...
Loading historical data...

JACKAL-02 Visibility forecast

Observer location: undefined°, undefined°

Span
Click to sort rows by Start time (UTC) header in descending order
Start Az.
Max El. time (UTC)
Max El. Az.
Max El.
End time (UTC)
End Az.
5 mins2025-07-01 20:52:00.205Z48.647° ENE2025-07-01 20:54:00.205Z86.142° E18.946°2025-07-01 20:57:00.205Z145.182° SSE
5 mins2025-07-02 08:58:00.205Z182.976° SSW2025-07-02 09:00:00.205Z269.992° W41.779°2025-07-02 09:03:00.205Z340.664° N
|